Temperature
17 17 17 17 17 17 17 18 18 18 18 18 18 18 18 18 18 18 18 18 18 18 18 18 18 18 18 18 18 18 18 18 18 18 18 18 18 18 18 18 17 17 18
17 17 17 17 17 17 17 18 18 18 18 18 18 17 17 18 18 17 17 17 17 17 18 18 18 17 18 18 18 18 18 18 18 18 18 18 18 17 18 18 18 17 18
17 17 17 17 17 17 17 17 17 17 17 18 17 17 17 17 17 17 17 17 17 17 17 17 17 17 17 18 18 18 18 18 18 18 17 17 17 17 17 18 17 17 17
17 17 17 17 17 17 17 17 17 17 17 17 17 17 17 17 17 17 17 17 17 17 17 17 17 17 17 17 17 17 17 17 17 17 17 17 17 17 17 17 17 17 17
16 16 16 17 17 17 17 17 17 17 17 17 17 17 17 17 17 17 17 17 17 17 17 17 17 17 17 17 17 17 17 17 17 17 17 17 17 17 17 17 17 17 17
16 16 16 17 17 17 17 17 17 17 17 17 17 17 17 17 17 17 17 17 17 17 17 17 17 17 17 17 17 17 17 17 16 16 16 16 16 17 17 17 17 17 17
16 16 16 17 17 17 17 17 17 17 17 17 17 17 17 17 17 17 17 17 17 17 17 17 17 17 17 17 17 17 17 17 16 16 16 16 16 17 17 17 17 17 17
16 16 16 17 17 17 17 17 17 17 16 16 17 17 17 17 17 17 17 16 16 16 17 16 16 16 17 17 17 17 17 16 16 16 16 16 16 17 17 17 17 17 17
16 16 16 16 16 16 16 16 16 16 16 16 16 16 17 17 17 17 16 16 16 16 16 16 16 16 16 16 16 17 16 16 16 16 16 16 16 16 16 16 16 16 17
16 16 16 16 16 16 16 16 16 16 16 16 16 16 16 16 16 16 16 16 16 16 16 16 16 16 16 16 16 16 16 16 15 16 16 16 16 16 16 16 16 16 16
16 16 16 16 16 16 16 16 16 16 16 16 16 16 16 16 15 16 16 16 16 16 16 16 16 16 16 16 16 16 16 15 15 15 15 16 16 16 16 16 16 16 16
16 16 16 16 16 16 16 16 16 15 15 15 15 15 15 15 15 15 16 16 16 16 16 16 16 16 16 16 16 16 16 15 15 15 15 15 15 15 15 16 16 16 16
16 16 16 16 16 16 16 16 16 15 15 15 15 15 15 15 15 15 15 15 15 15 15 15 15 15 15 15 15 15 15 15 15 15 15 15 15 15 15 15 15 15 16
16 16 16 16 16 16 16 15 15 15 15 15 15 15 15 15 15 15 15 15 15 15 15 15 15 15 15 15 15 15 15 15 15 15 15 15 15 15 15 15 15 15 15
16 16 16 16 16 16 16 15 15 15 15 15 15 15 15 15 15 15 15 15 15 15 15 15 15 15 15 15 15 15 15 15 15 15 15 15 15 15 15 15 15 15 15
16 16 16 16 16 15 15 15 15 15 15 15 15 15 15 15 15 15 15 15 15 15 15 15 15 14 14 14 15 15 15 15 15 14 14 14 14 14 14 14 14 14 14
16 16 16 16 15 15 15 15 15 15 15 15 15 15 15 15 15 15 15 14 14 14 14 14 14 14 14 14 14 14 14 14 14 14 14 14 14 14 14 14 14 14 14
16 16 16 15 15 15 15 15 15 15 15 14 14 14 14 14 14 14 14 14 14 14 14 14 14 14 14 14 14 14 14 14 14 14 14 14 14 14 14 14 14 14 14
16 16 16 16 15 15 15 15 15 15 14 14 14 14 14 14 14 14 14 14 14 14 14 14 14 14 14 14 14 14 14 14 14 14 14 14 14 13 14 14 14 14 14
16 16 16 16 15 15 15 15 14 14 14 14 14 14 14 14 14 14 14 14 14 14 13 13 13 13 13 13 14 14 14 14 14 14 14 13 13 13 13 13 13 13 13
16 16 16 16 15 15 15 15 14 14 14 14 14 14 14 14 14 14 14 14 13 13 13 13 13 13 13 13 13 13 14 14 14 13 13 13 13 13 13 13 13 13 13
17 16 16 16 16 15 15 15 14 14 14 14 14 14 14 14 14 13 13 13 13 13 13 13 13 13 13 13 13 13 14 14 13 13 13 13 13 13 13 13 13 13 12
17 16 16 16 16 15 15 15 14 14 14 14 14 14 13 13 13 13 13 13 13 13 13 13 13 12 13 13 13 13 14 15 13 13 13 13 13 13 12 12 12 12 12
16 16 16 16 15 15 15 15 14 14 14 14 14 13 13 13 13 13 13 13 13 13 13 12 12 12 12 12 12 13 13 13 13 13 13 13 12 12 12 12 12 12 12
16 16 16 16 15 15 15 15 14 14 14 14 14 13 13 13 13 13 13 13 13 12 12 12 12 12 12 12 12 12 12 12 13 13 13 13 12 12 12 12 12 12 12
16 16 16 15 15 15 15 14 14 14 14 14 13 13 13 13 13 13 13 13 13 12 12 12 12 12 12 12 12 12 12 12 12 13 13 13 12 12 12 12 12 12 12
Wind_Speed
2 3 5 4 6 7 8 9 10 10 9 9 10 10 9 9 9 9 9 8 8 8 8 8 8 8 9 8 8 9 9 9 8 8 8 7 6 5 5 4 3 4 7
3 4 6 6 7 8 9 10 10 10 10 10 10 10 10 10 9 9 9 9 8 8 8 8 8 8 8 8 8 8 9 9 8 8 6 6 7 6 6 4 3 5 6
4 5 7 7 8 9 10 10 10 10 11 11 11 11 11 11 10 9 9 9 9 8 8 7 7 8 8 8 8 8 8 8 7 5 2 4 7 7 6 5 5 4 4
5 6 7 8 8 9 10 10 10 10 11 11 11 11 11 11 11 10 10 9 9 8 8 7 7 7 7 8 8 8 8 7 5 1 3 6 6 8 7 6 5 4 4
6 6 8 7 9 9 10 10 11 10 11 11 12 12 11 11 11 10 10 10 9 8 8 7 7 7 7 8 8 8 7 6 4 3 6 6 7 8 6 6 6 5 5
6 6 9 8 9 9 9 10 10 11 11 11 12 12 12 12 11 10 10 10 9 8 8 7 7 8 8 8 8 8 7 5 3 6 6 6 7 7 7 6 6 6 6
7 7 9 8 9 9 9 10 11 11 12 12 12 12 12 12 11 11 11 10 9 9 8 8 7 8 8 8 8 8 7 4 6 6 6 6 8 8 8 7 7 7 7
7 7 9 9 9 10 10 10 11 11 12 12 12 11 11 11 11 11 11 10 10 10 9 8 8 7 7 8 8 8 6 4 6 7 7 8 9 8 8 8 8 8 8
6 6 7 8 9 10 10 10 11 11 11 11 11 11 10 10 11 10 10 10 10 10 10 9 9 8 7 8 8 7 6 4 6 6 7 8 9 9 8 8 7 7 8
6 6 6 7 7 8 10 10 10 11 11 11 11 10 9 9 9 9 9 10 10 10 9 9 9 9 8 8 7 6 4 2 7 7 8 9 9 9 9 8 7 7 7
6 5 6 6 6 6 8 9 8 9 9 8 9 8 5 6 7 7 10 9 9 8 8 8 7 7 6 7 6 4 2 5 7 7 8 10 10 10 10 9 8 7 7
6 5 5 5 5 6 6 6 6 6 6 6 6 6 5 6 7 7 9 9 9 7 7 7 4 4 2 5 5 2 4 6 6 7 9 10 10 10 10 10 9 7 7
6 6 5 5 5 5 5 5 4 4 5 5 5 6 5 5 4 4 4 5 5 4 5 5 3 4 4 5 4 4 5 5 5 6 8 9 9 9 9 10 9 9 9
5 5 5 5 5 5 5 4 4 4 4 4 4 5 4 3 3 4 3 4 3 4 4 4 3 4 4 4 4 5 5 4 4 5 8 9 9 8 9 10 11 10 9
5 5 5 5 4 4 4 3 3 4 4 4 4 4 4 3 3 3 3 3 3 3 3 3 3 4 4 4 5 4 4 5 5 5 6 9 9 9 10 11 11 11 11
5 5 5 5 5 4 4 4 4 4 4 4 4 4 4 3 3 3 3 3 3 3 3 3 3 3 3 4 4 5 4 4 4 5 5 7 9 9 9 10 10 11 11
5 5 6 5 5 4 4 4 4 3 4 4 3 4 4 4 3 3 3 3 3 3 3 3 3 3 3 3 3 4 4 4 4 4 5 4 5 7 8 8 9 9 9
5 5 5 5 5 5 4 4 3 4 4 3 3 3 3 3 4 3 2 3 3 3 3 2 2 2 2 2 2 2 2 3 3 3 3 3 4 4 6 8 8 8 8
6 6 6 6 6 5 5 4 3 3 3 3 3 2 2 3 3 3 3 2 3 2 2 2 2 2 2 2 2 2 2 2 2 2 3 3 4 3 4 6 6 7 8
6 6 7 6 6 6 4 4 3 2 2 2 2 2 2 3 3 3 2 2 3 2 2 2 2 2 2 1 1 1 1 1 1 1 2 2 3 4 4 4 3 4 6
7 7 7 7 7 6 5 4 4 3 2 2 2 2 2 2 2 3 2 2 2 2 2 2 2 2 1 0 0 1 1 1 1 1 1 1 3 3 3 3 3 3 3
7 7 7 7 8 7 5 5 4 3 2 2 2 1 1 1 2 2 2 2 1 1 1 1 1 0 1 1 2 1 1 2 1 1 1 1 2 2 2 3 3 3 3
7 7 7 8 8 8 7 5 4 3 2 2 2 2 1 1 1 1 1 1 1 1 1 0 0 0 1 1 2 2 2 1 0 1 1 0 1 1 2 2 3 3 3
8 7 7 8 8 8 8 7 6 4 4 3 3 3 3 2 2 1 1 1 1 1 1 1 1 1 2 1 1 2 3 2 2 1 1 0 1 1 2 2 2 2 3
7 7 7 8 7 7 8 7 6 5 4 3 3 4 4 3 2 2 2 2 2 2 2 1 1 2 2 2 2 1 1 1 3 2 1 1 0 0 1 2 2 2 2
6 6 6 7 7 7 7 7 7 6 5 4 4 4 3 2 2 3 3 3 3 2 2 2 2 2 2 2 2 2 2 2 2 2 2 2 2 1 1 1 1 1 1
Wind_Direction
103 88 78 71 72 70 70 72 71 71 78 80 83 88 95 97 94 95 99 99 95 92 90 91 88 86 84 82 82 82 83 83 83 82 84 84 83 76 72 89 105 108 96
102 98 93 84 79 77 75 75 72 70 76 79 81 85 89 93 94 90 92 99 96 90 86 84 85 84 84 84 82 80 81 82 81 83 87 98 90 76 69 77 63 78 95
102 100 105 88 83 82 81 79 75 72 74 76 77 80 84 88 88 84 85 91 96 93 87 83 83 84 87 87 85 82 80 79 79 83 112 102 94 78 68 70 78 84 93
101 98 91 89 89 86 83 80 79 74 76 79 79 78 79 84 84 82 81 83 89 91 89 85 84 85 87 87 87 83 78 75 71 41 83 71 74 71 60 63 71 76 81
99 94 93 88 87 87 85 82 82 80 82 83 82 78 76 79 81 79 77 78 79 84 86 84 82 84 85 86 85 80 77 75 73 62 67 66 66 63 56 59 61 65 70
103 98 98 89 88 87 85 85 83 81 83 83 81 77 76 76 77 76 73 74 76 77 81 85 85 84 82 83 86 82 75 66 70 69 66 65 64 61 57 58 59 60 61
105 99 101 92 91 90 86 86 82 80 81 80 80 78 76 76 76 75 74 73 74 71 73 79 82 83 84 84 84 80 75 56 68 70 66 62 59 56 55 57 61 63 62
104 100 100 96 89 87 86 87 85 81 78 77 77 78 78 75 73 73 71 71 71 69 67 72 73 75 81 84 83 78 64 27 74 71 67 63 59 54 56 58 58 58 57
106 104 99 103 103 96 87 84 82 78 76 76 76 74 74 73 72 70 70 70 70 65 64 67 68 72 79 83 84 82 74 46 63 66 68 64 59 55 52 54 55 54 54
111 106 101 100 99 100 98 87 81 77 75 76 74 72 74 81 80 74 73 69 68 64 63 66 69 74 75 79 83 85 89 88 64 64 59 64 58 52 48 49 51 53 54
118 113 109 107 100 94 94 98 96 90 81 87 85 80 84 83 81 79 66 68 69 68 65 65 74 83 89 94 89 90 102 74 70 61 56 56 56 53 50 49 49 50 51
134 126 120 117 112 108 101 101 94 92 91 84 82 82 75 74 70 69 76 71 71 71 78 71 84 125 118 91 103 130 78 74 70 67 63 55 53 52 49 46 43 44 44
136 129 128 126 120 114 111 105 96 91 88 85 80 80 76 78 83 77 80 90 84 77 72 82 95 72 69 69 68 71 65 61 65 66 64 56 50 49 48 46 40 43 48
137 134 133 133 125 117 114 108 106 102 96 88 80 76 75 72 70 72 70 67 72 71 61 56 57 65 68 75 75 71 71 63 62 65 66 57 46 43 47 46 46 48 52
146 146 143 142 131 122 111 106 110 103 98 95 81 71 71 73 72 73 75 70 66 67 67 54 56 63 62 61 60 58 59 60 61 63 70 66 51 46 49 49 49 53 55
158 154 147 148 139 132 126 125 110 104 102 92 85 72 71 71 70 72 73 66 62 58 57 63 66 70 69 66 58 52 51 54 54 60 63 73 66 54 52 51 51 51 52
171 163 154 152 146 140 131 117 110 111 109 98 85 71 69 66 64 68 69 72 66 62 62 59 64 61 67 70 61 51 48 47 47 49 54 49 63 69 62 55 53 50 49
175 174 162 161 156 145 134 127 120 114 106 100 91 71 67 68 62 64 69 69 63 62 60 62 55 64 65 60 52 45 47 52 45 45 53 58 51 52 69 65 54 49 47
179 178 172 171 164 152 141 135 123 119 111 101 96 82 69 69 69 71 65 65 68 66 59 58 55 56 65 57 48 35 29 43 38 42 49 51 53 54 60 83 76 54 44
182 180 176 173 170 159 153 151 140 135 125 106 98 90 81 75 74 76 84 82 75 78 64 61 73 64 55 53 52 44 39 46 28 23 31 45 42 47 45 53 73 83 64
182 184 181 179 176 169 164 168 168 169 161 143 114 101 98 90 91 91 94 90 74 77 63 57 74 98 88 29 353 61 113 96 49 66 29 32 57 49 44 53 43 36 68
184 189 186 185 181 176 175 175 176 171 170 160 139 123 124 121 109 112 124 121 118 83 75 71 78 85 76 315 308 286 222 172 121 78 77 36 34 55 38 36 42 38 22
189 191 191 187 181 179 176 172 160 154 164 168 175 178 173 158 144 154 147 135 142 171 150 146 157 230 273 300 318 307 291 317 56 160 69 124 55 30 33 30 31 28 24
192 191 192 187 183 180 177 179 178 185 189 195 190 182 185 180 174 192 186 186 173 194 196 223 251 266 269 268 286 324 328 339 279 245 193 117 46 27 19 24 23 23 21
186 186 190 184 182 179 182 182 191 196 199 190 187 188 189 182 192 208 212 194 204 211 220 227 241 261 258 278 278 273 294 291 280 284 271 275 280 6 8 357 360 14 14
176 177 182 182 181 180 185 190 199 199 200 195 195 193 196 192 205 217 221 214 222 227 228 231 231 242 263 269 270 267 275 282 291 289 283 284 292 315 332 349 337 1 350
Height
1525 1524 1523 1523 1524 1523 1523 1523 1522 1522 1521 1521 1520 1520 1520 1520 1521 1521 1522 1522 1522 1523 1523 1523 1523 1523 1523 1523 1524 1524 1524 1524 1524 1524 1524 1524 1524 1524 1524 1524 1524 1524 1523
1526 1525 1524 1524 1525 1524 1524 1524 1523 1523 1523 1522 1522 1522 1521 1522 1522 1523 1523 1523 1524 1524 1524 1524 1525 1525 1525 1525 1525 1525 1525 1525 1525 1525 1525 1525 1525 1525 1525 1525 1525 1525 1524
1526 1526 1526 1525 1526 1525 1525 1525 1525 1524 1524 1524 1523 1523 1523 1523 1524 1524 1524 1525 1525 1525 1525 1525 1526 1526 1526 1526 1526 1526 1526 1526 1526 1526 1527 1527 1527 1526 1526 1526 1525 1525 1525
1528 1528 1527 1527 1527 1527 1527 1527 1526 1526 1526 1525 1525 1525 1525 1525 1525 1525 1526 1526 1526 1526 1527 1527 1527 1527 1527 1527 1527 1527 1527 1527 1527 1528 1529 1529 1528 1527 1527 1526 1526 1526 1526
1529 1529 1528 1528 1528 1528 1528 1528 1528 1527 1527 1527 1527 1527 1527 1527 1527 1527 1527 1527 1528 1528 1528 1528 1528 1528 1528 1528 1528 1528 1528 1528 1528 1529 1529 1529 1528 1528 1527 1527 1526 1526 1526
1530 1530 1529 1529 1529 1529 1529 1529 1529 1529 1529 1529 1529 1528 1528 1528 1529 1529 1529 1529 1529 1529 1529 1529 1529 1529 1529 1529 1529 1529 1529 1529 1530 1530 1530 1530 1529 1528 1528 1528 1527 1527 1527
1531 1531 1531 1530 1530 1531 1531 1531 1531 1531 1530 1530 1530 1530 1530 1530 1530 1530 1530 1530 1530 1530 1530 1530 1531 1531 1530 1530 1530 1530 1530 1530 1531 1531 1531 1531 1530 1529 1529 1528 1528 1527 1527
1532 1532 1532 1532 1532 1532 1532 1532 1532 1532 1532 1532 1532 1532 1532 1532 1532 1532 1532 1531 1531 1531 1531 1531 1532 1532 1532 1531 1531 1531 1531 1531 1532 1532 1532 1531 1531 1530 1530 1529 1529 1528 1528
1533 1534 1534 1534 1534 1534 1534 1534 1534 1534 1534 1534 1534 1534 1534 1534 1534 1534 1533 1533 1533 1533 1533 1532 1532 1532 1532 1532 1532 1532 1532 1532 1533 1533 1533 1532 1531 1531 1531 1530 1529 1529 1528
1534 1535 1535 1536 1536 1537 1536 1535 1535 1535 1536 1536 1536 1536 1536 1536 1535 1535 1535 1534 1534 1534 1534 1533 1533 1533 1533 1533 1533 1533 1533 1534 1534 1534 1534 1533 1532 1532 1531 1530 1530 1529 1528
1535 1536 1536 1537 1537 1538 1538 1537 1537 1537 1537 1537 1537 1537 1537 1538 1538 1537 1536 1536 1535 1535 1534 1534 1534 1534 1534 1534 1533 1534 1534 1535 1535 1535 1535 1534 1533 1532 1532 1531 1530 1529 1528
1535 1536 1537 1538 1538 1538 1538 1539 1539 1539 1539 1539 1539 1539 1539 1539 1539 1538 1537 1537 1536 1536 1535 1534 1534 1535 1536 1536 1535 1535 1536 1536 1536 1536 1535 1534 1533 1533 1532 1531 1529 1528 1527
1536 1537 1538 1538 1539 1539 1539 1540 1540 1540 1540 1540 1541 1541 1540 1540 1540 1540 1539 1539 1538 1537 1537 1535 1536 1537 1537 1537 1537 1537 1537 1537 1537 1537 1536 1535 1534 1533 1532 1530 1528 1526 1525
1537 1537 1538 1539 1540 1540 1541 1541 1541 1541 1541 1542 1542 1542 1542 1541 1541 1541 1541 1540 1539 1539 1538 1538 1537 1537 1538 1538 1538 1538 1538 1538 1538 1538 1537 1536 1535 1534 1532 1531 1529 1526 1525
1537 1538 1539 1539 1540 1541 1541 1541 1542 1542 1542 1543 1542 1543 1543 1542 1542 1542 1542 1541 1541 1540 1540 1539 1539 1538 1539 1539 1539 1539 1539 1539 1539 1539 1538 1536 1536 1534 1533 1532 1530 1529 1528
1537 1538 1539 1540 1540 1541 1541 1542 1542 1543 1542 1543 1543 1543 1543 1543 1543 1543 1542 1542 1541 1541 1541 1540 1540 1540 1540 1540 1540 1540 1540 1540 1540 1539 1538 1537 1536 1535 1534 1533 1532 1531 1530
1537 1538 1539 1539 1540 1541 1542 1542 1543 1543 1543 1543 1543 1544 1544 1543 1543 1543 1543 1542 1542 1542 1542 1541 1541 1540 1540 1540 1540 1540 1540 1540 1540 1540 1539 1538 1537 1536 1535 1534 1533 1532 1532
1536 1537 1538 1539 1540 1541 1541 1542 1543 1543 1543 1543 1543 1544 1544 1544 1544 1543 1543 1543 1542 1542 1542 1542 1542 1541 1541 1541 1541 1541 1541 1540 1540 1540 1540 1539 1538 1537 1536 1535 1534 1534 1533
1535 1536 1537 1538 1539 1540 1541 1542 1542 1543 1543 1543 1543 1543 1544 1544 1544 1543 1543 1543 1543 1543 1543 1542 1542 1542 1542 1541 1541 1541 1540 1540 1540 1540 1540 1540 1539 1538 1537 1535 1535 1534 1533
1534 1535 1536 1537 1538 1539 1540 1541 1542 1542 1543 1543 1543 1543 1543 1543 1544 1543 1543 1543 1543 1543 1543 1543 1542 1542 1541 1541 1541 1541 1540 1540 1540 1540 1540 1539 1539 1538 1537 1536 1536 1535 1534
1532 1534 1535 1536 1537 1538 1539 1540 1541 1542 1542 1543 1543 1543 1543 1543 1543 1543 1543 1543 1543 1543 1543 1543 1542 1542 1542 1541 1542 1541 1541 1540 1540 1540 1540 1539 1539 1538 1538 1537 1536 1535 1534
1530 1532 1533 1534 1535 1537 1538 1540 1540 1541 1542 1542 1542 1543 1543 1543 1543 1543 1543 1543 1543 1542 1542 1542 1542 1542 1541 1541 1542 1541 1541 1542 1540 1540 1539 1539 1539 1538 1537 1537 1536 1535 1534
1528 1530 1531 1533 1534 1535 1537 1538 1539 1540 1541 1541 1541 1542 1542 1542 1542 1542 1543 1543 1542 1542 1542 1542 1542 1542 1542 1541 1541 1542 1541 1540 1540 1540 1539 1539 1538 1537 1537 1536 1536 1535 1534
1526 1527 1529 1531 1533 1534 1536 1537 1538 1539 1540 1541 1541 1541 1541 1542 1542 1542 1542 1542 1542 1542 1542 1542 1541 1541 1541 1541 1540 1540 1541 1540 1541 1540 1540 1539 1537 1537 1537 1536 1535 1535 1534
1524 1525 1527 1529 1531 1532 1534 1535 1537 1538 1539 1540 1540 1540 1541 1541 1541 1541 1541 1541 1541 1541 1541 1541 1540 1540 1540 1540 1540 1540 1539 1539 1539 1539 1539 1538 1537 1537 1536 1535 1534 1534 1533
1522 1523 1525 1527 1529 1530 1532 1533 1535 1536 1537 1538 1538 1539 1539 1540 1540 1540 1540 1540 1540 1540 1540 1540 1539 1539 1539 1538 1538 1539 1539 1539 1539 1538 1538 1537 1537 1536 1535 1534 1533 1533 1532